TimeEST,TemperatureF,Dew PointF,Humidity,Sea Level PressureIn,VisibilityMPH,Wind Direction,Wind SpeedMPH,Gust SpeedMPH,PrecipitationIn,Events,Conditions,WindDirDegrees,DateUTC
12:53 AM,37.0,21.9,54,29.87,10.0,SW,8.1,18.4,N/A,,Clear,230,2014-01-20 05:53:00
1:53 AM,37.9,21.0,51,29.86,10.0,SW,12.7,21.9,N/A,,Clear,230,2014-01-20 06:53:00
2:53 AM,37.9,21.0,51,29.85,10.0,SW,8.1,19.6,N/A,,Clear,230,2014-01-20 07:53:00
3:53 AM,37.9,21.0,51,29.85,10.0,SW,9.2,21.9,N/A,,Clear,230,2014-01-20 08:53:00
4:53 AM,39.0,21.0,49,29.85,10.0,SW,9.2,19.6,N/A,,Clear,230,2014-01-20 09:53:00
5:53 AM,39.0,21.0,49,29.85,10.0,Variable,5.8,-,N/A,,Clear,0,2014-01-20 10:53:00
6:53 AM,37.9,21.0,51,29.86,10.0,SW,8.1,-,N/A,,Clear,230,2014-01-20 11:53:00
7:53 AM,37.9,21.9,53,29.87,10.0,SW,8.1,20.7,N/A,,Clear,220,2014-01-20 12:53:00
8:53 AM,41.0,21.9,47,29.88,10.0,North,-9999.0,-,N/A,,Clear,0,2014-01-20 13:53:00
9:53 AM,43.0,23.0,45,29.89,10.0,Variable,4.6,19.6,N/A,,Clear,0,2014-01-20 14:53:00
10:53 AM,46.0,25.0,44,29.91,10.0,Variable,6.9,17.3,N/A,,Clear,0,2014-01-20 15:53:00
11:53 AM,48.9,26.1,41,29.89,10.0,Variable,6.9,-,N/A,,Clear,0,2014-01-20 16:53:00
12:53 PM,51.1,26.1,38,29.86,10.0,Variable,5.8,-,N/A,,Clear,0,2014-01-20 17:53:00
1:53 PM,54.0,27.0,35,29.84,10.0,Variable,5.8,-,N/A,,Clear,0,2014-01-20 18:53:00
2:53 PM,54.0,26.1,34,29.83,10.0,WSW,5.8,-,N/A,,Clear,250,2014-01-20 19:53:00
3:53 PM,53.1,24.1,32,29.84,10.0,Variable,6.9,16.1,N/A,,Clear,0,2014-01-20 20:53:00
4:53 PM,52.0,24.1,34,29.85,10.0,West,6.9,-,N/A,,Clear,280,2014-01-20 21:53:00
5:53 PM,48.9,25.0,39,29.86,10.0,WNW,4.6,-,N/A,,Clear,290,2014-01-20 22:53:00
6:53 PM,46.9,25.0,42,29.87,10.0,Variable,3.5,-,N/A,,Clear,0,2014-01-20 23:53:00
7:53 PM,46.0,25.0,44,29.87,10.0,Calm,Calm,-,N/A,,Clear,0,2014-01-21 00:53:00
8:53 PM,45.0,25.0,46,29.86,10.0,Calm,Calm,-,N/A,,Clear,0,2014-01-21 01:53:00
9:53 PM,42.1,26.1,53,29.84,10.0,NE,4.6,-,N/A,,Clear,40,2014-01-21 02:53:00
10:53 PM,39.9,27.0,60,29.84,10.0,Variable,3.5,-,N/A,,Clear,0,2014-01-21 03:53:00
11:53 PM,37.9,27.0,65,29.82,10.0,Variable,6.9,-,N/A,,Clear,0,2014-01-21 04:53:00